EWG84A EDDM-EDDH

Flight info

Callsign EWG84A
Flight time 0h 58m
Altitude 34000
Route INPUD3Q/08L INPUD Y102 ALIBU DCT ELNAT P605 NOLGO NOLGO6A
Aircraft A21N/M-SDE2E3FGHIRWXY/LB1

Departure

Time 2026-05-01 10:26
Airport Munich Airport (EDDM)

Arrival

Time 2026-05-01 11:25
Airport Hamburg Helmut Schmidt Airport (EDDH)
Time Latitude Longitude Altitude Speed Heading
2026-05-01 09:50 48.35788 11.79253 1478 ft 0 kts 263°
2026-05-01 10:15 48.35789 11.79255 1491 ft 2 kts 263°
2026-05-01 10:15 48.35791 11.79292 1475 ft 4 kts 263°
2026-05-01 10:16 48.35794 11.79328 1480 ft 2 kts 263°
2026-05-01 10:16 48.35795 11.79364 1481 ft 4 kts 282°
2026-05-01 10:16 48.35761 11.79401 1479 ft 4 kts 353°
2026-05-01 10:17 48.35753 11.79402 1483 ft 0 kts 353°
2026-05-01 10:19 48.35794 11.79395 1483 ft 8 kts 353°
2026-05-01 10:20 48.35925 11.79353 1482 ft 11 kts 338°
2026-05-01 10:20 48.36005 11.79329 1491 ft 6 kts 355°
2026-05-01 10:20 48.36015 11.79328 1485 ft 0 kts 354°
2026-05-01 10:21 48.36067 11.79316 1491 ft 9 kts 337°
2026-05-01 10:21 48.36086 11.79228 1482 ft 11 kts 263°
2026-05-01 10:22 48.36067 11.78968 1488 ft 14 kts 263°
2026-05-01 10:22 48.36042 11.78640 1491 ft 17 kts 263°
2026-05-01 10:23 48.36027 11.78454 1487 ft 19 kts 263°
2026-05-01 10:23 48.35995 11.78042 1488 ft 21 kts 263°
2026-05-01 10:23 48.35977 11.77816 1486 ft 22 kts 263°
2026-05-01 10:24 48.35940 11.77327 1491 ft 25 kts 263°
2026-05-01 10:24 48.35963 11.77018 1487 ft 15 kts 316°
2026-05-01 10:25 48.36178 11.76950 1486 ft 17 kts 353°
2026-05-01 10:25 48.36296 11.77050 1486 ft 13 kts 82°
2026-05-01 10:26 48.36327 11.77446 1488 ft 71 kts 83°
2026-05-01 10:26 48.36407 11.78490 1491 ft 126 kts 83°
2026-05-01 10:26 48.36646 11.81550 2185 ft 154 kts 83°
2026-05-01 10:27 48.36892 11.84878 3340 ft 177 kts 80°
2026-05-01 10:27 48.38259 11.88561 4313 ft 243 kts 42°
2026-05-01 10:28 48.39833 11.89752 5061 ft 264 kts 18°
2026-05-01 10:28 48.42887 11.89095 6692 ft 280 kts 333°
2026-05-01 10:28 48.44318 11.87075 7601 ft 289 kts 304°
2026-05-01 10:29 48.45250 11.80067 9602 ft 302 kts 290°
2026-05-01 10:29 48.46322 11.77378 10480 ft 301 kts 315°
2026-05-01 10:30 48.48945 11.73429 11180 ft 338 kts 317°
2026-05-01 10:30 48.52321 11.67916 11897 ft 378 kts 314°
2026-05-01 10:31 48.55809 11.61878 13574 ft 383 kts 316°
2026-05-01 10:31 48.60240 11.57689 15103 ft 378 kts 342°
2026-05-01 10:32 48.65226 11.54908 16436 ft 385 kts 343°
2026-05-01 10:32 48.67751 11.53482 17064 ft 389 kts 342°
2026-05-01 10:32 48.72826 11.50566 18288 ft 396 kts 342°
2026-05-01 10:33 48.78009 11.47569 19421 ft 402 kts 342°
2026-05-01 10:33 48.83264 11.44526 20495 ft 406 kts 343°
2026-05-01 10:34 48.85908 11.42989 21005 ft 409 kts 342°
2026-05-01 10:34 48.88573 11.41439 21538 ft 411 kts 343°
2026-05-01 10:34 48.91254 11.39882 22080 ft 414 kts 343°
2026-05-01 10:35 48.96623 11.36732 23125 ft 419 kts 342°
2026-05-01 10:35 48.99356 11.35129 23659 ft 422 kts 342°
2026-05-01 10:35 49.02103 11.33513 24142 ft 425 kts 342°
2026-05-01 10:35 49.04872 11.31891 24597 ft 427 kts 342°
2026-05-01 10:36 49.10455 11.28607 25482 ft 432 kts 342°
2026-05-01 10:36 49.13261 11.26946 25893 ft 434 kts 342°
2026-05-01 10:36 49.16092 11.25272 26302 ft 437 kts 343°
2026-05-01 10:37 49.18900 11.23625 26713 ft 440 kts 343°
2026-05-01 10:37 49.24647 11.20289 27488 ft 444 kts 344°
2026-05-01 10:37 49.27559 11.18662 27862 ft 446 kts 344°
2026-05-01 10:38 49.30474 11.17019 28316 ft 446 kts 344°
2026-05-01 10:38 49.33374 11.15383 28831 ft 444 kts 344°
2026-05-01 10:38 49.36271 11.13748 29336 ft 443 kts 344°
2026-05-01 10:38 49.39160 11.12110 29816 ft 442 kts 344°
2026-05-01 10:39 49.42000 11.10492 30303 ft 441 kts 344°
2026-05-01 10:39 49.44871 11.08860 30729 ft 440 kts 344°
2026-05-01 10:39 49.47740 11.07225 31128 ft 438 kts 344°
2026-05-01 10:39 49.50590 11.05595 31549 ft 437 kts 344°
2026-05-01 10:40 49.53382 11.03693 31932 ft 441 kts 336°
2026-05-01 10:40 49.56029 11.01288 32326 ft 442 kts 334°
2026-05-01 10:40 49.58643 10.98817 32709 ft 441 kts 333°
2026-05-01 10:40 49.61256 10.96340 33086 ft 440 kts 333°
2026-05-01 10:41 49.63857 10.93881 33462 ft 438 kts 333°
2026-05-01 10:41 49.66459 10.91423 33816 ft 438 kts 334°
2026-05-01 10:41 49.71604 10.86560 34403 ft 437 kts 333°
2026-05-01 10:42 49.74195 10.84104 34463 ft 437 kts 333°
2026-05-01 10:42 49.79370 10.79195 34445 ft 436 kts 333°
2026-05-01 10:43 49.84539 10.74283 34437 ft 436 kts 333°
2026-05-01 10:43 49.89678 10.69384 34437 ft 436 kts 333°
2026-05-01 10:44 49.94848 10.64440 34440 ft 436 kts 333°
2026-05-01 10:44 50.00022 10.59484 34439 ft 437 kts 333°
2026-05-01 10:45 50.05191 10.54516 34436 ft 437 kts 333°
2026-05-01 10:45 50.10327 10.49562 34443 ft 437 kts 333°
2026-05-01 10:46 50.15494 10.44570 34446 ft 437 kts 333°
2026-05-01 10:46 50.20665 10.39561 34438 ft 437 kts 333°
2026-05-01 10:47 50.25832 10.34561 34436 ft 437 kts 333°
2026-05-01 10:47 50.31010 10.29552 34439 ft 437 kts 333°
2026-05-01 10:48 50.36145 10.24566 34440 ft 437 kts 333°
2026-05-01 10:48 50.41578 10.20524 34442 ft 432 kts 342°
2026-05-01 10:49 50.47137 10.16986 34437 ft 432 kts 342°
2026-05-01 10:49 50.52710 10.13405 34432 ft 432 kts 342°
2026-05-01 10:50 50.58244 10.09829 34440 ft 432 kts 342°
2026-05-01 10:50 50.63801 10.06235 34440 ft 432 kts 342°
2026-05-01 10:51 50.69365 10.02632 34438 ft 432 kts 342°
2026-05-01 10:51 50.74922 9.99019 34431 ft 432 kts 342°
2026-05-01 10:52 50.80443 9.95425 34433 ft 432 kts 342°
2026-05-01 10:52 50.86001 9.91797 34432 ft 432 kts 342°
2026-05-01 10:53 50.91560 9.88152 34431 ft 433 kts 342°
2026-05-01 10:53 50.97124 9.84507 34429 ft 433 kts 342°
2026-05-01 10:54 51.02651 9.80872 34429 ft 433 kts 342°
2026-05-01 10:54 51.08210 9.77191 34433 ft 433 kts 342°
2026-05-01 10:55 51.13777 9.73511 34429 ft 433 kts 342°
2026-05-01 10:55 51.19400 9.70135 34427 ft 428 kts 351°
2026-05-01 10:55 51.22324 9.69512 34429 ft 422 kts
2026-05-01 10:56 51.25240 9.69759 34434 ft 419 kts
2026-05-01 10:56 51.30991 9.70778 34432 ft 419 kts
2026-05-01 10:57 51.36792 9.71756 34429 ft 419 kts
2026-05-01 10:57 51.42592 9.72660 34439 ft 419 kts
2026-05-01 10:58 51.48388 9.73574 34439 ft 418 kts
2026-05-01 10:58 51.54130 9.74678 34438 ft 418 kts 10°
2026-05-01 10:59 51.59889 9.75825 34438 ft 418 kts 10°
2026-05-01 10:59 51.65670 9.76930 34432 ft 418 kts
2026-05-01 11:00 51.71511 9.76975 34439 ft 421 kts
2026-05-01 11:00 51.77363 9.76767 34436 ft 420 kts
2026-05-01 11:01 51.83172 9.76653 34434 ft 421 kts
2026-05-01 11:01 51.89024 9.76560 34439 ft 420 kts
2026-05-01 11:02 51.94876 9.76477 34444 ft 420 kts
2026-05-01 11:02 52.00729 9.76367 34458 ft 421 kts
2026-05-01 11:03 52.06541 9.76251 34449 ft 420 kts
2026-05-01 11:03 52.12388 9.76114 34444 ft 420 kts
2026-05-01 11:04 52.18153 9.76019 33699 ft 416 kts
2026-05-01 11:04 52.21103 9.75975 32897 ft 418 kts
2026-05-01 11:04 52.24023 9.75939 32210 ft 419 kts
2026-05-01 11:04 52.26934 9.75893 31561 ft 418 kts
2026-05-01 11:05 52.29841 9.75838 30941 ft 417 kts
2026-05-01 11:05 52.32749 9.75782 30288 ft 417 kts
2026-05-01 11:05 52.35642 9.75727 29561 ft 416 kts
2026-05-01 11:05 52.38505 9.75688 28963 ft 424 kts
2026-05-01 11:06 52.41451 9.75651 28422 ft 422 kts
2026-05-01 11:06 52.44376 9.75607 27811 ft 418 kts
2026-05-01 11:06 52.47277 9.75549 27198 ft 415 kts
2026-05-01 11:07 52.53022 9.75453 26018 ft 410 kts
2026-05-01 11:07 52.55890 9.75411 25593 ft 413 kts
2026-05-01 11:07 52.58762 9.75368 25421 ft 413 kts
2026-05-01 11:07 52.61634 9.75326 25399 ft 413 kts
2026-05-01 11:08 52.64508 9.75270 25414 ft 413 kts
2026-05-01 11:08 52.67346 9.75208 25429 ft 414 kts
2026-05-01 11:08 52.73104 9.75089 25438 ft 414 kts
2026-05-01 11:09 52.75980 9.75048 25440 ft 414 kts
2026-05-01 11:09 52.78856 9.75023 25435 ft 414 kts
2026-05-01 11:09 52.81741 9.74990 25439 ft 414 kts
2026-05-01 11:10 52.87487 9.74885 25328 ft 407 kts
2026-05-01 11:10 52.90305 9.74829 24546 ft 407 kts
2026-05-01 11:10 52.93154 9.74779 23532 ft 412 kts
2026-05-01 11:10 52.96030 9.74742 22588 ft 413 kts
2026-05-01 11:11 52.98858 9.74701 21781 ft 411 kts
2026-05-01 11:11 53.01711 9.74648 21001 ft 408 kts
2026-05-01 11:11 53.04545 9.74590 20261 ft 405 kts
2026-05-01 11:11 53.07351 9.74545 19547 ft 402 kts
2026-05-01 11:12 53.10137 9.74503 18845 ft 399 kts
2026-05-01 11:12 53.12902 9.74458 18097 ft 395 kts
2026-05-01 11:12 53.15635 9.74411 17361 ft 392 kts
2026-05-01 11:12 53.18351 9.74362 16635 ft 388 kts
2026-05-01 11:13 53.21039 9.74306 15935 ft 385 kts
2026-05-01 11:13 53.23671 9.74259 15259 ft 382 kts
2026-05-01 11:13 53.26322 9.74217 14587 ft 379 kts
2026-05-01 11:13 53.28953 9.74175 13900 ft 377 kts
2026-05-01 11:14 53.31569 9.74128 13165 ft 375 kts
2026-05-01 11:14 53.34165 9.74077 12477 ft 372 kts
2026-05-01 11:14 53.36735 9.74035 11892 ft 367 kts
2026-05-01 11:14 53.39286 9.73991 11199 ft 366 kts
2026-05-01 11:15 53.41825 9.73947 10585 ft 364 kts
2026-05-01 11:15 53.44354 9.73903 9968 ft 362 kts
2026-05-01 11:15 53.46864 9.73861 9341 ft 360 kts
2026-05-01 11:15 53.49357 9.73814 8744 ft 357 kts
2026-05-01 11:16 53.51798 9.73760 8140 ft 354 kts
2026-05-01 11:16 53.54253 9.73709 7562 ft 353 kts
2026-05-01 11:16 53.56703 9.73668 7012 ft 350 kts
2026-05-01 11:16 53.59117 9.73638 6488 ft 343 kts
2026-05-01 11:17 53.61470 9.73617 5960 ft 335 kts
2026-05-01 11:17 53.63771 9.73605 5441 ft 327 kts
2026-05-01 11:17 53.66020 9.73600 4994 ft 319 kts
2026-05-01 11:17 53.68213 9.73606 4542 ft 311 kts
2026-05-01 11:18 53.70348 9.73624 4108 ft 302 kts
2026-05-01 11:18 53.72396 9.73657 3796 ft 294 kts
2026-05-01 11:18 53.74405 9.73704 3527 ft 283 kts
2026-05-01 11:18 53.76345 9.73754 3244 ft 274 kts
2026-05-01 11:19 53.78214 9.73808 3025 ft 263 kts
2026-05-01 11:19 53.79995 9.73862 2965 ft 247 kts
2026-05-01 11:19 53.81649 9.74046 2976 ft 232 kts 15°
2026-05-01 11:19 53.83048 9.75288 2963 ft 228 kts 44°
2026-05-01 11:20 53.83901 9.77513 2996 ft 227 kts 74°
2026-05-01 11:20 53.83923 9.80128 3010 ft 225 kts 109°
2026-05-01 11:20 53.83046 9.82269 3020 ft 224 kts 140°
2026-05-01 11:20 53.81752 9.83686 3008 ft 225 kts 153°
2026-05-01 11:21 53.80334 9.84819 3011 ft 225 kts 156°
2026-05-01 11:21 53.78938 9.85881 2930 ft 215 kts 155°
2026-05-01 11:21 53.77615 9.86963 2740 ft 209 kts 153°
2026-05-01 11:21 53.76318 9.88080 2465 ft 208 kts 153°
2026-05-01 11:22 53.75064 9.89169 2258 ft 199 kts 153°
2026-05-01 11:22 53.73849 9.90225 1935 ft 192 kts 153°
2026-05-01 11:22 53.72684 9.91238 1630 ft 184 kts 153°
2026-05-01 11:22 53.71592 9.92186 1402 ft 170 kts 153°
2026-05-01 11:23 53.70588 9.93059 1180 ft 152 kts 153°
2026-05-01 11:23 53.69723 9.93809 968 ft 135 kts 153°
2026-05-01 11:23 53.68900 9.94523 813 ft 135 kts 153°
2026-05-01 11:23 53.68066 9.95242 680 ft 134 kts 153°
2026-05-01 11:24 53.67240 9.95955 472 ft 133 kts 153°
2026-05-01 11:24 53.66419 9.96673 322 ft 133 kts 153°
2026-05-01 11:24 53.64802 9.98067 62 ft 119 kts 153°
2026-05-01 11:25 53.64193 9.98597 54 ft 85 kts 153°
2026-05-01 11:25 53.63434 9.99243 52 ft 29 kts 149°
2026-05-01 11:25 53.63311 9.99433 52 ft 25 kts 120°
2026-05-01 11:26 53.63281 9.99613 53 ft 11 kts 98°
2026-05-01 11:26 53.63279 9.99628 54 ft 1 kts 98°
2026-05-01 11:26 53.63277 9.99659 54 ft 4 kts 98°
2026-05-01 11:27 53.63264 9.99716 52 ft 6 kts 129°
2026-05-01 11:27 53.63220 9.99763 54 ft 9 kts 152°
2026-05-01 11:27 53.63160 9.99815 53 ft 11 kts 152°
2026-05-01 11:27 53.63088 9.99878 54 ft 13 kts 152°
2026-05-01 11:28 53.63004 9.99951 54 ft 13 kts 153°
2026-05-01 11:28 53.62949 10.00034 54 ft 10 kts 102°
2026-05-01 11:28 53.62957 10.00124 54 ft 9 kts 89°
2026-05-01 11:29 53.62930 10.00273 54 ft 0 kts 109°
2026-05-01 11:29 53.62928 10.00283 54 ft 0 kts 106°